Time,TemperatureF,DewpointF,PressureIn,WindDirection,WindDirectionDegrees,WindSpeedMPH,WindSpeedGustMPH,Humidity,HourlyPrecipIn,Conditions,Clouds,dailyrainin,SoftwareType,DateUTC
2013-06-06 00:01:00,63.0,-23.0,27.85,NNE,22,0.0,0.0,0,0.00,,,0.00,Rainwise IP-100,2013-06-06 04:01:00,
2013-06-06 00:06:00,63.0,-23.0,27.85,NNE,22,0.0,0.0,0,0.00,,,0.00,Rainwise IP-100,2013-06-06 04:06:00,
2013-06-06 00:11:00,64.0,-23.0,27.84,NNE,22,0.0,0.0,0,0.00,,,0.00,Rainwise IP-100,2013-06-06 04:11:00,
2013-06-06 00:16:00,63.0,-23.0,27.84,NNE,22,0.0,0.0,0,0.00,,,0.00,Rainwise IP-100,2013-06-06 04:16:00,
2013-06-06 00:21:00,64.0,-23.0,27.85,NNE,22,0.0,0.0,0,0.00,,,0.00,Rainwise IP-100,2013-06-06 04:21:00,
2013-06-06 00:26:00,63.0,-23.0,27.85,NNE,22,0.0,0.0,0,0.00,,,0.00,Rainwise IP-100,2013-06-06 04:26:00,
2013-06-06 00:31:00,64.0,-23.0,27.84,NNE,22,0.0,0.0,0,0.06,,,0.01,Rainwise IP-100,2013-06-06 04:31:00,
2013-06-06 00:36:00,63.0,-23.0,27.84,NNE,22,0.0,0.0,0,0.12,,,0.02,Rainwise IP-100,2013-06-06 04:36:00,
2013-06-06 00:41:00,63.0,-23.0,27.84,NNE,22,0.0,0.0,0,0.12,,,0.03,Rainwise IP-100,2013-06-06 04:41:00,
2013-06-06 00:46:00,63.0,-23.0,27.84,NNE,22,0.0,0.0,0,0.06,,,0.03,Rainwise IP-100,2013-06-06 04:46:00,
2013-06-06 00:51:00,63.0,-23.0,27.84,NNE,22,0.0,0.0,0,0.00,,,0.03,Rainwise IP-100,2013-06-06 04:51:00,
2013-06-06 00:56:00,63.0,-23.0,27.84,NNE,22,0.0,0.0,0,0.00,,,0.03,Rainwise IP-100,2013-06-06 04:56:00,
2013-06-06 01:01:00,63.0,-23.0,27.83,NNE,22,0.0,0.0,0,0.00,,,0.03,Rainwise IP-100,2013-06-06 05:01:00,
2013-06-06 01:06:00,63.0,-23.0,27.83,NNE,22,0.0,0.0,0,0.00,,,0.03,Rainwise IP-100,2013-06-06 05:06:00,
2013-06-06 01:11:00,63.0,-23.0,27.83,NNE,22,0.0,0.0,0,0.00,,,0.03,Rainwise IP-100,2013-06-06 05:11:00,
2013-06-06 01:16:00,63.0,-23.0,27.82,NNE,22,0.0,0.0,0,0.00,,,0.03,Rainwise IP-100,2013-06-06 05:16:00,
2013-06-06 01:21:00,63.0,-23.0,27.81,NNE,22,0.0,0.0,0,0.06,,,0.04,Rainwise IP-100,2013-06-06 05:21:00,
2013-06-06 01:26:00,63.0,-23.0,27.81,NNE,22,0.0,0.0,0,0.06,,,0.04,Rainwise IP-100,2013-06-06 05:26:00,
2013-06-06 01:31:00,63.0,-23.0,27.80,NNE,22,0.0,0.0,0,0.00,,,0.04,Rainwise IP-100,2013-06-06 05:31:00,
2013-06-06 01:36:00,63.0,-23.0,27.80,NNE,22,0.0,0.0,0,0.00,,,0.04,Rainwise IP-100,2013-06-06 05:36:00,
2013-06-06 01:41:00,63.0,-23.0,27.80,NNE,22,0.0,0.0,0,0.06,,,0.05,Rainwise IP-100,2013-06-06 05:41:00,
2013-06-06 01:46:00,63.0,-23.0,27.80,NNE,22,0.0,0.0,0,0.06,,,0.05,Rainwise IP-100,2013-06-06 05:46:00,
2013-06-06 01:51:00,63.0,-23.0,27.80,NNE,22,0.0,1.0,0,0.00,,,0.05,Rainwise IP-100,2013-06-06 05:51:00,
2013-06-06 01:56:00,63.0,-23.0,27.80,NNE,22,0.0,2.0,0,0.00,,,0.05,Rainwise IP-100,2013-06-06 05:56:00,
2013-06-06 02:01:00,63.0,-23.0,27.79,NNE,22,0.0,1.0,0,0.00,,,0.05,Rainwise IP-100,2013-06-06 06:01:00,
2013-06-06 02:06:00,63.0,-23.0,27.79,SSE,157,0.0,3.0,0,0.00,,,0.05,Rainwise IP-100,2013-06-06 06:06:00,
2013-06-06 02:11:00,64.0,-23.0,27.78,SSE,157,0.0,0.0,0,0.00,,,0.05,Rainwise IP-100,2013-06-06 06:11:00,
2013-06-06 02:16:00,64.0,-23.0,27.78,SSE,157,0.0,0.0,0,0.00,,,0.05,Rainwise IP-100,2013-06-06 06:16:00,
2013-06-06 02:21:00,64.0,-23.0,27.78,SSE,157,0.0,0.0,0,0.00,,,0.05,Rainwise IP-100,2013-06-06 06:21:00,
2013-06-06 02:26:00,64.0,-23.0,27.78,SSE,157,0.0,0.0,0,0.00,,,0.05,Rainwise IP-100,2013-06-06 06:26:00,
2013-06-06 02:31:00,64.0,-23.0,27.78,SSE,157,0.0,0.0,0,0.00,,,0.05,Rainwise IP-100,2013-06-06 06:31:00,
2013-06-06 02:36:00,64.0,-23.0,27.78,ENE,67,0.0,0.0,0,0.00,,,0.05,Rainwise IP-100,2013-06-06 06:36:00,
2013-06-06 02:41:00,64.0,-23.0,27.78,NE,45,0.0,1.0,0,0.00,,,0.05,Rainwise IP-100,2013-06-06 06:41:00,
2013-06-06 02:46:00,64.0,-23.0,27.78,NE,45,0.0,0.0,0,0.00,,,0.05,Rainwise IP-100,2013-06-06 06:46:00,
2013-06-06 02:51:00,64.0,-23.0,27.78,NE,45,0.0,0.0,0,0.00,,,0.05,Rainwise IP-100,2013-06-06 06:51:00,
2013-06-06 02:56:00,64.0,-23.0,27.78,NE,45,0.0,0.0,0,0.00,,,0.05,Rainwise IP-100,2013-06-06 06:56:00,
2013-06-06 03:01:00,64.0,-23.0,27.78,NE,45,0.0,0.0,0,0.00,,,0.05,Rainwise IP-100,2013-06-06 07:01:00,
2013-06-06 03:06:00,64.0,-23.0,27.78,NNE,22,0.0,2.0,0,0.00,,,0.05,Rainwise IP-100,2013-06-06 07:06:00,
2013-06-06 03:11:00,64.0,-23.0,27.78,NNE,22,0.0,0.0,0,0.00,,,0.05,Rainwise IP-100,2013-06-06 07:11:00,
2013-06-06 03:16:00,64.0,-23.0,27.78,SSE,157,2.0,3.0,0,0.00,,,0.05,Rainwise IP-100,2013-06-06 07:16:00,
2013-06-06 03:21:00,64.0,-23.0,27.78,SSE,157,0.0,2.0,0,0.00,,,0.05,Rainwise IP-100,2013-06-06 07:21:00,
2013-06-06 03:26:00,64.0,-23.0,27.78,SSE,157,0.0,0.0,0,0.00,,,0.05,Rainwise IP-100,2013-06-06 07:26:00,
2013-06-06 03:31:00,64.0,-23.0,27.78,SSE,157,0.0,0.0,0,0.00,,,0.05,Rainwise IP-100,2013-06-06 07:31:00,
2013-06-06 03:36:00,64.0,-23.0,27.78,SSE,157,0.0,0.0,0,0.00,,,0.05,Rainwise IP-100,2013-06-06 07:36:00,
2013-06-06 03:41:00,64.0,-23.0,27.77,SSE,157,0.0,0.0,0,0.06,,,0.06,Rainwise IP-100,2013-06-06 07:41:00,
2013-06-06 03:46:00,64.0,-23.0,27.77,NE,45,0.0,1.0,0,0.06,,,0.06,Rainwise IP-100,2013-06-06 07:46:00,
2013-06-06 03:51:00,64.0,-23.0,27.77,NE,45,0.0,0.0,0,0.00,,,0.06,Rainwise IP-100,2013-06-06 07:51:00,
2013-06-06 03:56:00,64.0,-23.0,27.77,NE,45,0.0,0.0,0,0.00,,,0.06,Rainwise IP-100,2013-06-06 07:56:00,
2013-06-06 04:01:00,64.0,-23.0,27.77,NE,45,0.0,0.0,0,0.00,,,0.06,Rainwise IP-100,2013-06-06 08:01:00,
2013-06-06 04:06:00,64.0,-23.0,27.77,NE,45,0.0,0.0,0,0.00,,,0.06,Rainwise IP-100,2013-06-06 08:06:00,
2013-06-06 04:11:00,64.0,-23.0,27.76,NE,45,0.0,0.0,0,0.00,,,0.06,Rainwise IP-100,2013-06-06 08:11:00,
2013-06-06 04:16:00,63.0,-23.0,27.76,NE,45,0.0,0.0,0,0.00,,,0.06,Rainwise IP-100,2013-06-06 08:16:00,
2013-06-06 04:21:00,64.0,-23.0,27.76,NE,45,0.0,0.0,0,0.00,,,0.06,Rainwise IP-100,2013-06-06 08:21:00,
2013-06-06 04:26:00,63.0,-23.0,27.76,NE,45,0.0,0.0,0,0.00,,,0.06,Rainwise IP-100,2013-06-06 08:26:00,
2013-06-06 04:31:00,63.0,-23.0,27.76,NE,45,0.0,0.0,0,0.00,,,0.06,Rainwise IP-100,2013-06-06 08:31:00,
2013-06-06 04:36:00,63.0,-23.0,27.76,NE,45,0.0,0.0,0,0.00,,,0.06,Rainwise IP-100,2013-06-06 08:36:00,
2013-06-06 04:41:00,63.0,-23.0,27.77,NE,45,0.0,0.0,0,0.00,,,0.06,Rainwise IP-100,2013-06-06 08:41:00,
2013-06-06 04:46:00,63.0,-23.0,27.77,NE,45,0.0,0.0,0,0.00,,,0.06,Rainwise IP-100,2013-06-06 08:46:00,
2013-06-06 04:51:00,63.0,-23.0,27.77,NE,45,0.0,0.0,0,0.00,,,0.06,Rainwise IP-100,2013-06-06 08:51:00,
2013-06-06 04:56:00,63.0,-23.0,27.77,NE,45,0.0,0.0,0,0.00,,,0.06,Rainwise IP-100,2013-06-06 08:56:00,
2013-06-06 05:01:00,63.0,-23.0,27.76,NE,45,0.0,0.0,0,0.00,,,0.06,Rainwise IP-100,2013-06-06 09:01:00,
2013-06-06 05:06:00,63.0,-23.0,27.76,NE,45,0.0,0.0,0,0.00,,,0.06,Rainwise IP-100,2013-06-06 09:06:00,
2013-06-06 05:11:00,63.0,-23.0,27.76,NE,45,0.0,0.0,0,0.00,,,0.06,Rainwise IP-100,2013-06-06 09:11:00,
2013-06-06 05:16:00,63.0,-23.0,27.76,NE,45,0.0,0.0,0,0.00,,,0.06,Rainwise IP-100,2013-06-06 09:16:00,
2013-06-06 05:21:00,63.0,-23.0,27.76,NE,45,0.0,0.0,0,0.00,,,0.06,Rainwise IP-100,2013-06-06 09:21:00,
2013-06-06 05:26:00,63.0,-23.0,27.76,NE,45,0.0,0.0,0,0.00,,,0.06,Rainwise IP-100,2013-06-06 09:26:00,
2013-06-06 05:31:00,63.0,-23.0,27.76,NE,45,0.0,0.0,0,0.00,,,0.06,Rainwise IP-100,2013-06-06 09:31:00,
2013-06-06 05:36:00,63.0,-23.0,27.76,NE,45,0.0,0.0,0,0.00,,,0.06,Rainwise IP-100,2013-06-06 09:36:00,
2013-06-06 05:41:00,63.0,-23.0,27.76,NE,45,0.0,0.0,0,0.00,,,0.06,Rainwise IP-100,2013-06-06 09:41:00,
2013-06-06 05:46:00,63.0,-23.0,27.76,NE,45,0.0,0.0,0,0.00,,,0.06,Rainwise IP-100,2013-06-06 09:46:00,
2013-06-06 05:51:00,63.0,-23.0,27.76,NE,45,0.0,0.0,0,0.00,,,0.06,Rainwise IP-100,2013-06-06 09:51:00,
2013-06-06 05:56:00,63.0,-23.0,27.76,NE,45,0.0,0.0,0,0.00,,,0.06,Rainwise IP-100,2013-06-06 09:56:00,
2013-06-06 06:01:00,63.0,-23.0,27.76,NE,45,0.0,0.0,0,0.00,,,0.06,Rainwise IP-100,2013-06-06 10:01:00,
2013-06-06 06:06:00,63.0,-23.0,27.76,NE,45,0.0,0.0,0,0.00,,,0.06,Rainwise IP-100,2013-06-06 10:06:00,
2013-06-06 06:11:00,63.0,-23.0,27.76,NE,45,0.0,0.0,0,0.00,,,0.06,Rainwise IP-100,2013-06-06 10:11:00,
2013-06-06 06:16:00,63.0,-23.0,27.76,NE,45,0.0,0.0,0,0.00,,,0.06,Rainwise IP-100,2013-06-06 10:16:00,
2013-06-06 06:21:00,63.0,-23.0,27.76,NE,45,0.0,0.0,0,0.00,,,0.06,Rainwise IP-100,2013-06-06 10:21:00,
2013-06-06 06:26:00,63.0,-23.0,27.76,NE,45,0.0,0.0,0,0.00,,,0.06,Rainwise IP-100,2013-06-06 10:26:00,
2013-06-06 06:31:00,63.0,-23.0,27.76,NE,45,0.0,0.0,0,0.00,,,0.06,Rainwise IP-100,2013-06-06 10:31:00,
2013-06-06 06:36:00,63.0,-23.0,27.76,NE,45,0.0,0.0,0,0.00,,,0.06,Rainwise IP-100,2013-06-06 10:36:00,
2013-06-06 06:41:00,63.0,-23.0,27.76,NE,45,0.0,0.0,0,0.00,,,0.06,Rainwise IP-100,2013-06-06 10:41:00,
2013-06-06 06:46:00,63.0,-23.0,27.76,NE,45,0.0,0.0,0,0.00,,,0.06,Rainwise IP-100,2013-06-06 10:46:00,
2013-06-06 06:51:00,63.0,-23.0,27.75,NE,45,0.0,0.0,0,0.00,,,0.06,Rainwise IP-100,2013-06-06 10:51:00,
2013-06-06 06:56:00,63.0,-23.0,27.75,NE,45,0.0,0.0,0,0.00,,,0.06,Rainwise IP-100,2013-06-06 10:56:00,
2013-06-06 07:00:00,63.0,-23.0,27.75,NE,45,0.0,0.0,0,0.00,,,0.06,Rainwise IP-100,2013-06-06 11:00:00,
2013-06-06 07:05:00,63.0,-23.0,27.76,NE,45,0.0,0.0,0,0.00,,,0.06,Rainwise IP-100,2013-06-06 11:05:00,
2013-06-06 07:10:00,63.0,-23.0,27.76,NE,45,0.0,0.0,0,0.00,,,0.06,Rainwise IP-100,2013-06-06 11:10:00,
2013-06-06 07:15:00,63.0,-23.0,27.76,NE,45,0.0,0.0,0,0.00,,,0.06,Rainwise IP-100,2013-06-06 11:15:00,
2013-06-06 07:20:00,63.0,-23.0,27.76,NE,45,0.0,0.0,0,0.00,,,0.06,Rainwise IP-100,2013-06-06 11:20:00,
2013-06-06 07:25:00,64.0,-23.0,27.76,NE,45,0.0,0.0,0,0.00,,,0.06,Rainwise IP-100,2013-06-06 11:25:00,
2013-06-06 07:30:00,64.0,-23.0,27.76,NE,45,0.0,0.0,0,0.00,,,0.06,Rainwise IP-100,2013-06-06 11:30:00,
2013-06-06 07:35:00,64.0,-23.0,27.76,NE,45,0.0,0.0,0,0.00,,,0.06,Rainwise IP-100,2013-06-06 11:35:00,
2013-06-06 07:40:00,64.0,-23.0,27.76,NE,45,0.0,0.0,0,0.00,,,0.06,Rainwise IP-100,2013-06-06 11:40:00,
2013-06-06 07:45:00,64.0,-23.0,27.76,NE,45,0.0,0.0,0,0.00,,,0.06,Rainwise IP-100,2013-06-06 11:45:00,
2013-06-06 07:50:00,64.0,-23.0,27.76,NE,45,0.0,0.0,0,0.00,,,0.06,Rainwise IP-100,2013-06-06 11:50:00,
2013-06-06 07:55:00,64.0,-23.0,27.76,NE,45,0.0,0.0,0,0.00,,,0.06,Rainwise IP-100,2013-06-06 11:55:00,
2013-06-06 08:16:00,64.0,-23.0,27.76,NE,45,0.0,0.0,0,0.00,,,0.06,Rainwise IP-100,2013-06-06 12:16:00,
2013-06-06 08:21:00,64.0,-23.0,27.76,NE,45,0.0,0.0,0,0.06,,,0.07,Rainwise IP-100,2013-06-06 12:21:00,
2013-06-06 08:26:00,64.0,-23.0,27.76,NE,45,0.0,0.0,0,0.06,,,0.07,Rainwise IP-100,2013-06-06 12:26:00,
2013-06-06 08:31:00,64.0,-23.0,27.75,NE,45,0.0,0.0,0,0.00,,,0.07,Rainwise IP-100,2013-06-06 12:31:00,
2013-06-06 08:36:00,64.0,-23.0,27.75,NE,45,0.0,0.0,0,0.00,,,0.07,Rainwise IP-100,2013-06-06 12:36:00,
2013-06-06 08:41:00,65.0,-23.0,27.75,NE,45,0.0,0.0,0,0.00,,,0.07,Rainwise IP-100,2013-06-06 12:41:00,
2013-06-06 08:46:00,65.0,-23.0,27.75,NE,45,0.0,0.0,0,0.00,,,0.07,Rainwise IP-100,2013-06-06 12:46:00,
2013-06-06 08:51:00,65.0,-23.0,27.75,NE,45,0.0,0.0,0,0.00,,,0.07,Rainwise IP-100,2013-06-06 12:51:00,
2013-06-06 08:56:00,65.0,-23.0,27.75,NE,45,0.0,0.0,0,0.00,,,0.07,Rainwise IP-100,2013-06-06 12:56:00,
2013-06-06 09:01:00,65.0,-23.0,27.75,NE,45,0.0,0.0,0,0.00,,,0.07,Rainwise IP-100,2013-06-06 13:01:00,
2013-06-06 12:38:00,71.0,-23.0,27.73,SSW,202,0.0,0.0,0,0.00,,,0.07,Rainwise IP-100,2013-06-06 16:38:00,
2013-06-06 12:43:00,71.0,-23.0,27.73,SSW,202,0.0,0.0,0,0.00,,,0.07,Rainwise IP-100,2013-06-06 16:43:00,
2013-06-06 13:30:00,72.0,-23.0,27.72,East,90,0.0,0.0,0,0.00,,,0.07,Rainwise IP-100,2013-06-06 17:30:00,
2013-06-06 13:35:00,72.0,-23.0,27.72,East,90,0.0,4.0,0,0.00,,,0.07,Rainwise IP-100,2013-06-06 17:35:00,
2013-06-06 13:40:00,72.0,-23.0,27.72,East,90,0.0,4.0,0,0.00,,,0.07,Rainwise IP-100,2013-06-06 17:40:00,
2013-06-06 13:45:00,72.0,-23.0,27.72,ESE,112,4.0,4.0,0,0.00,,,0.07,Rainwise IP-100,2013-06-06 17:45:00,
2013-06-06 13:50:00,72.0,-23.0,27.70,ESE,112,0.0,4.0,0,0.00,,,0.07,Rainwise IP-100,2013-06-06 17:50:00,
2013-06-06 13:55:00,72.0,-23.0,27.70,ESE,112,0.0,0.0,0,0.00,,,0.07,Rainwise IP-100,2013-06-06 17:55:00,
2013-06-06 14:03:00,74.0,51.0,27.69,South,180,1.0,0.0,45,0.00,,,0.07,Rainwise IP-100,2013-06-06 18:03:00,
2013-06-06 14:08:00,74.0,51.0,27.69,SE,135,4.0,4.0,45,0.00,,,0.07,Rainwise IP-100,2013-06-06 18:08:00,
2013-06-06 14:13:00,74.0,52.0,27.69,SSE,157,0.0,4.0,46,0.00,,,0.07,Rainwise IP-100,2013-06-06 18:13:00,
2013-06-06 14:18:00,73.0,54.0,27.68,SSW,202,0.0,3.0,51,0.00,,,0.07,Rainwise IP-100,2013-06-06 18:18:00,
2013-06-06 14:23:00,74.0,48.0,27.68,WSW,247,0.0,2.0,40,0.00,,,0.07,Rainwise IP-100,2013-06-06 18:23:00,
2013-06-06 14:28:00,74.0,52.0,27.68,SE,135,2.0,3.0,46,0.00,,,0.07,Rainwise IP-100,2013-06-06 18:28:00,
2013-06-06 14:33:00,74.0,57.5,27.68,ESE,112,3.0,4.0,56,0.00,,,0.07,Rainwise IP-100,2013-06-06 18:33:00,
2013-06-06 14:38:00,74.0,61.5,27.68,SSE,157,3.0,4.0,65,0.00,,,0.07,Rainwise IP-100,2013-06-06 18:38:00,
2013-06-06 14:43:00,74.0,60.0,27.69,SSW,202,1.0,4.0,61,0.00,,,0.07,Rainwise IP-100,2013-06-06 18:43:00,
2013-06-06 14:48:00,74.0,63.5,27.69,ESE,112,3.0,4.0,69,0.00,,,0.07,Rainwise IP-100,2013-06-06 18:48:00,
2013-06-06 14:53:00,74.0,63.5,27.69,SSW,202,3.0,3.0,69,0.00,,,0.07,Rainwise IP-100,2013-06-06 18:53:00,
2013-06-06 14:58:00,74.0,62.0,27.68,SE,135,3.0,4.0,66,0.00,,,0.07,Rainwise IP-100,2013-06-06 18:58:00,
2013-06-06 15:03:00,74.0,62.0,27.68,SE,135,0.0,4.0,66,0.00,,,0.07,Rainwise IP-100,2013-06-06 19:03:00,
2013-06-06 15:08:00,74.0,62.5,27.68,ESE,112,0.0,3.0,67,0.00,,,0.07,Rainwise IP-100,2013-06-06 19:08:00,
2013-06-06 15:13:00,74.0,66.0,27.68,NNE,22,0.0,3.0,75,0.00,,,0.07,Rainwise IP-100,2013-06-06 19:13:00,
2013-06-06 15:18:00,74.0,66.0,27.68,NNE,22,0.0,0.0,75,0.00,,,0.07,Rainwise IP-100,2013-06-06 19:18:00,
2013-06-06 15:23:00,74.0,66.0,27.68,NE,45,0.0,0.0,75,0.00,,,0.07,Rainwise IP-100,2013-06-06 19:23:00,
2013-06-06 15:28:00,74.0,65.0,27.68,North,360,0.0,0.0,73,0.00,,,0.07,Rainwise IP-100,2013-06-06 19:28:00,
2013-06-06 15:33:00,74.0,64.0,27.68,SE,135,0.0,0.0,70,0.00,,,0.07,Rainwise IP-100,2013-06-06 19:33:00,
2013-06-06 15:38:00,74.0,64.5,27.68,ESE,112,1.0,2.0,72,0.00,,,0.07,Rainwise IP-100,2013-06-06 19:38:00,
2013-06-06 15:43:00,74.0,65.0,27.68,SSW,202,0.0,2.0,73,0.00,,,0.07,Rainwise IP-100,2013-06-06 19:43:00,
2013-06-06 15:48:00,74.0,64.0,27.68,South,180,0.0,2.0,70,0.00,,,0.07,Rainwise IP-100,2013-06-06 19:48:00,
2013-06-06 15:51:00,74.0,64.5,27.68,SW,225,1.0,3.0,72,0.00,,,0.07,Rainwise IP-100,2013-06-06 19:51:00,
2013-06-06 15:56:00,74.0,63.0,27.67,NNE,22,0.0,3.0,68,0.00,,,0.07,Rainwise IP-100,2013-06-06 19:56:00,
2013-06-06 16:01:00,74.0,64.0,27.67,NNE,22,0.0,2.0,70,0.00,,,0.07,Rainwise IP-100,2013-06-06 20:01:00,
2013-06-06 16:06:00,74.0,63.5,27.67,NE,45,0.0,2.0,69,0.00,,,0.07,Rainwise IP-100,2013-06-06 20:06:00,
2013-06-06 16:11:00,74.0,63.5,27.67,NE,45,0.0,2.0,69,0.00,,,0.07,Rainwise IP-100,2013-06-06 20:11:00,
2013-06-06 16:16:00,74.0,63.5,27.67,NE,45,0.0,2.0,69,0.00,,,0.07,Rainwise IP-100,2013-06-06 20:16:00,
2013-06-06 16:29:00,72.0,57.0,27.67,South,180,1.0,0.0,59,0.00,,,0.07,Rainwise IP-100,2013-06-06 20:29:00,
2013-06-06 16:34:00,73.0,56.0,27.67,ENE,67,2.0,4.0,55,0.00,,,0.07,Rainwise IP-100,2013-06-06 20:34:00,
2013-06-06 16:39:00,73.0,56.5,27.67,SE,135,1.0,5.0,56,0.00,,,0.07,Rainwise IP-100,2013-06-06 20:39:00,
2013-06-06 16:44:00,73.0,56.5,27.66,SE,135,1.0,4.0,56,0.00,,,0.07,Rainwise IP-100,2013-06-06 20:44:00,
2013-06-06 16:49:00,74.0,61.0,27.66,ESE,112,0.0,5.0,63,0.00,,,0.07,Rainwise IP-100,2013-06-06 20:49:00,
2013-06-06 16:54:00,74.0,64.0,27.66,SSW,202,0.0,4.0,71,0.00,,,0.07,Rainwise IP-100,2013-06-06 20:54:00,
2013-06-06 16:59:00,74.0,66.0,27.66,South,180,0.0,4.0,75,0.00,,,0.07,Rainwise IP-100,2013-06-06 20:59:00,
2013-06-06 17:04:00,74.0,68.5,27.66,SSE,157,1.0,3.0,82,0.00,,,0.07,Rainwise IP-100,2013-06-06 21:04:00,
2013-06-06 17:09:00,73.0,64.0,27.66,SSE,157,0.0,4.0,73,0.00,,,0.07,Rainwise IP-100,2013-06-06 21:09:00,
2013-06-06 17:14:00,73.0,65.0,27.66,SSE,157,0.0,4.0,75,0.00,,,0.07,Rainwise IP-100,2013-06-06 21:14:00,
2013-06-06 17:19:00,73.0,62.5,27.66,South,180,0.0,2.0,70,0.00,,,0.07,Rainwise IP-100,2013-06-06 21:19:00,
2013-06-06 17:24:00,73.0,61.5,27.66,East,90,0.0,3.0,67,0.00,,,0.07,Rainwise IP-100,2013-06-06 21:24:00,
2013-06-06 17:29:00,73.0,63.5,27.66,ESE,112,0.0,4.0,72,0.00,,,0.07,Rainwise IP-100,2013-06-06 21:29:00,
2013-06-06 17:34:00,72.0,62.0,27.66,SE,135,0.0,5.0,71,0.00,,,0.07,Rainwise IP-100,2013-06-06 21:34:00,
2013-06-06 17:39:00,72.0,60.0,27.66,SE,135,0.0,5.0,66,0.00,,,0.07,Rainwise IP-100,2013-06-06 21:39:00,
2013-06-06 17:44:00,73.0,63.0,27.65,ESE,112,3.0,4.0,71,0.00,,,0.07,Rainwise IP-100,2013-06-06 21:44:00,
2013-06-06 17:49:00,73.0,62.5,27.65,ESE,112,0.0,4.0,70,0.00,,,0.07,Rainwise IP-100,2013-06-06 21:49:00,
2013-06-06 17:54:00,73.0,65.0,27.65,ESE,112,1.0,4.0,75,0.00,,,0.07,Rainwise IP-100,2013-06-06 21:54:00,
2013-06-06 17:59:00,73.0,64.5,27.65,SSE,157,1.0,4.0,74,0.00,,,0.07,Rainwise IP-100,2013-06-06 21:59:00,
2013-06-06 18:04:00,73.0,62.5,27.65,SE,135,0.0,5.0,69,0.00,,,0.07,Rainwise IP-100,2013-06-06 22:04:00,
2013-06-06 18:09:00,73.0,60.5,27.65,SE,135,2.0,3.0,65,0.00,,,0.07,Rainwise IP-100,2013-06-06 22:09:00,
2013-06-06 18:14:00,73.0,63.5,27.65,SE,135,0.0,3.0,72,0.00,,,0.07,Rainwise IP-100,2013-06-06 22:14:00,
2013-06-06 18:19:00,73.0,62.0,27.65,SE,135,3.0,4.0,68,0.00,,,0.07,Rainwise IP-100,2013-06-06 22:19:00,
2013-06-06 18:24:00,73.0,62.5,27.65,SW,225,1.0,5.0,69,0.00,,,0.07,Rainwise IP-100,2013-06-06 22:24:00,
2013-06-06 18:29:00,73.0,61.5,27.64,SSE,157,0.0,4.0,67,0.00,,,0.07,Rainwise IP-100,2013-06-06 22:29:00,
2013-06-06 18:34:00,73.0,60.5,27.64,SW,225,0.0,4.0,65,0.00,,,0.07,Rainwise IP-100,2013-06-06 22:34:00,
2013-06-06 18:39:00,72.0,59.5,27.64,ESE,112,0.0,3.0,65,0.00,,,0.07,Rainwise IP-100,2013-06-06 22:39:00,
2013-06-06 18:44:00,72.0,58.0,27.64,ESE,112,0.0,1.0,62,0.00,,,0.07,Rainwise IP-100,2013-06-06 22:44:00,
2013-06-06 18:49:00,72.0,57.0,27.64,SSW,202,0.0,3.0,60,0.00,,,0.07,Rainwise IP-100,2013-06-06 22:49:00,
2013-06-06 18:54:00,72.0,57.0,27.64,SSW,202,3.0,3.0,59,0.00,,,0.07,Rainwise IP-100,2013-06-06 22:54:00,
2013-06-06 18:59:00,71.0,54.0,27.64,ESE,112,3.0,5.0,55,0.00,,,0.07,Rainwise IP-100,2013-06-06 22:59:00,
2013-06-06 19:04:00,71.0,50.0,27.65,SE,135,1.0,3.0,48,0.00,,,0.07,Rainwise IP-100,2013-06-06 23:04:00,
2013-06-06 19:09:00,71.0,50.0,27.65,ESE,112,0.0,3.0,48,0.00,,,0.07,Rainwise IP-100,2013-06-06 23:09:00,
2013-06-06 19:14:00,71.0,50.0,27.65,SE,135,1.0,3.0,48,0.00,,,0.07,Rainwise IP-100,2013-06-06 23:14:00,
2013-06-06 19:19:00,70.0,48.0,27.65,SE,135,2.0,4.0,46,0.00,,,0.07,Rainwise IP-100,2013-06-06 23:19:00,
2013-06-06 19:24:00,71.0,52.0,27.65,South,180,0.0,3.0,51,0.00,,,0.07,Rainwise IP-100,2013-06-06 23:24:00,
2013-06-06 19:29:00,71.0,52.0,27.65,South,180,0.0,3.0,51,0.00,,,0.07,Rainwise IP-100,2013-06-06 23:29:00,
2013-06-06 19:34:00,71.0,52.0,27.65,South,180,0.0,3.0,51,0.00,,,0.07,Rainwise IP-100,2013-06-06 23:34:00,
2013-06-06 19:39:00,71.0,52.0,27.65,South,180,0.0,3.0,51,0.00,,,0.07,Rainwise IP-100,2013-06-06 23:39:00,
2013-06-06 19:44:00,70.0,41.0,27.65,SSE,157,1.0,3.0,35,0.00,,,0.07,Rainwise IP-100,2013-06-06 23:44:00,
2013-06-06 19:49:00,70.0,39.0,27.65,SSE,157,0.0,1.0,33,0.00,,,0.07,Rainwise IP-100,2013-06-06 23:49:00,
2013-06-06 19:54:00,69.0,24.0,27.65,South,180,0.0,4.0,19,0.00,,,0.07,Rainwise IP-100,2013-06-06 23:54:00,
2013-06-06 19:59:00,69.0,21.0,27.65,SE,135,0.0,3.0,16,0.00,,,0.07,Rainwise IP-100,2013-06-06 23:59:00,
2013-06-06 20:04:00,69.0,23.0,27.66,SE,135,0.0,2.0,17,0.00,,,0.07,Rainwise IP-100,2013-06-07 00:04:00,
2013-06-06 20:09:00,69.0,16.0,27.66,SE,135,0.0,4.0,12,0.00,,,0.07,Rainwise IP-100,2013-06-07 00:09:00,
2013-06-06 20:14:00,69.0,8.0,27.66,SE,135,2.0,3.0,8,0.00,,,0.07,Rainwise IP-100,2013-06-07 00:14:00,
2013-06-06 20:19:00,69.0,8.0,27.66,East,90,2.0,3.0,9,0.00,,,0.07,Rainwise IP-100,2013-06-07 00:19:00,
2013-06-06 20:24:00,69.0,-6.0,27.65,SE,135,0.0,2.0,4,0.00,,,0.07,Rainwise IP-100,2013-06-07 00:24:00,
2013-06-06 20:29:00,68.0,-23.0,27.65,SE,135,0.0,3.0,1,0.00,,,0.07,Rainwise IP-100,2013-06-07 00:29:00,
2013-06-06 20:34:00,68.0,-23.0,27.66,SE,135,0.0,3.0,1,0.00,,,0.07,Rainwise IP-100,2013-06-07 00:34:00,
2013-06-06 20:39:00,68.0,-23.0,27.66,SE,135,0.0,0.0,0,0.00,,,0.07,Rainwise IP-100,2013-06-07 00:39:00,
2013-06-06 20:44:00,68.0,-23.0,27.66,NNE,22,0.0,2.0,0,0.00,,,0.07,Rainwise IP-100,2013-06-07 00:44:00,
2013-06-06 20:49:00,68.0,-13.0,27.66,SE,135,0.0,0.0,3,0.00,,,0.07,Rainwise IP-100,2013-06-07 00:49:00,
2013-06-06 20:54:00,68.0,-23.0,27.66,East,90,0.0,2.0,0,0.00,,,0.07,Rainwise IP-100,2013-06-07 00:54:00,
2013-06-06 20:59:00,68.0,-13.0,27.66,East,90,0.0,0.0,3,0.00,,,0.07,Rainwise IP-100,2013-06-07 00:59:00,
2013-06-06 21:04:00,68.0,-23.0,27.66,ESE,112,0.0,0.0,0,0.00,,,0.07,Rainwise IP-100,2013-06-07 01:04:00,
2013-06-06 21:09:00,68.0,-23.0,27.66,SSE,157,0.0,0.0,0,0.00,,,0.07,Rainwise IP-100,2013-06-07 01:09:00,
2013-06-06 21:14:00,68.0,-23.0,27.66,SSE,157,0.0,0.0,2,0.00,,,0.07,Rainwise IP-100,2013-06-07 01:14:00,
2013-06-06 21:19:00,67.0,-23.0,27.66,SSE,157,0.0,0.0,0,0.00,,,0.07,Rainwise IP-100,2013-06-07 01:19:00,
2013-06-06 21:24:00,67.0,-23.0,27.65,SSE,157,0.0,0.0,0,0.00,,,0.07,Rainwise IP-100,2013-06-07 01:24:00,
2013-06-06 21:29:00,67.0,-23.0,27.65,NE,45,0.0,0.0,0,0.00,,,0.07,Rainwise IP-100,2013-06-07 01:29:00,
2013-06-06 21:34:00,67.0,-23.0,27.66,NE,45,0.0,0.0,0,0.00,,,0.07,Rainwise IP-100,2013-06-07 01:34:00,
2013-06-06 21:39:00,67.0,-23.0,27.66,NE,45,0.0,0.0,0,0.00,,,0.07,Rainwise IP-100,2013-06-07 01:39:00,
2013-06-06 21:44:00,67.0,-23.0,27.66,NE,45,0.0,0.0,0,0.00,,,0.07,Rainwise IP-100,2013-06-07 01:44:00,
2013-06-06 21:49:00,67.0,-23.0,27.66,NE,45,0.0,0.0,0,0.00,,,0.07,Rainwise IP-100,2013-06-07 01:49:00,
2013-06-06 21:54:00,67.0,-23.0,27.66,NE,45,0.0,0.0,0,0.00,,,0.07,Rainwise IP-100,2013-06-07 01:54:00,
2013-06-06 21:59:00,67.0,-23.0,27.66,NE,45,0.0,0.0,0,0.00,,,0.07,Rainwise IP-100,2013-06-07 01:59:00,
2013-06-06 22:04:00,67.0,-23.0,27.66,NE,45,0.0,0.0,0,0.00,,,0.07,Rainwise IP-100,2013-06-07 02:04:00,
2013-06-06 22:09:00,67.0,-23.0,27.66,SE,135,0.0,1.0,0,0.00,,,0.07,Rainwise IP-100,2013-06-07 02:09:00,
2013-06-06 22:14:00,67.0,-23.0,27.66,ESE,112,0.0,1.0,0,0.00,,,0.07,Rainwise IP-100,2013-06-07 02:14:00,
2013-06-06 22:19:00,67.0,-23.0,27.66,East,90,0.0,1.0,0,0.00,,,0.07,Rainwise IP-100,2013-06-07 02:19:00,
2013-06-06 22:24:00,67.0,-23.0,27.67,East,90,0.0,0.0,0,0.00,,,0.07,Rainwise IP-100,2013-06-07 02:24:00,
2013-06-06 22:29:00,67.0,-23.0,27.67,SSE,157,0.0,0.0,0,0.00,,,0.07,Rainwise IP-100,2013-06-07 02:29:00,
2013-06-06 22:34:00,67.0,-23.0,27.66,SE,135,0.0,2.0,0,0.00,,,0.07,Rainwise IP-100,2013-06-07 02:34:00,
2013-06-06 22:39:00,67.0,-23.0,27.66,SE,135,0.0,0.0,0,0.00,,,0.07,Rainwise IP-100,2013-06-07 02:39:00,
2013-06-06 22:44:00,67.0,-23.0,27.67,SE,135,0.0,0.0,0,0.00,,,0.07,Rainwise IP-100,2013-06-07 02:44:00,
2013-06-06 22:49:00,67.0,-23.0,27.67,SE,135,0.0,0.0,0,0.00,,,0.07,Rainwise IP-100,2013-06-07 02:49:00,
2013-06-06 22:54:00,67.0,-23.0,27.67,SE,135,0.0,0.0,0,0.00,,,0.07,Rainwise IP-100,2013-06-07 02:54:00,
2013-06-06 22:59:00,67.0,-23.0,27.67,SE,135,0.0,0.0,0,0.00,,,0.07,Rainwise IP-100,2013-06-07 02:59:00,
2013-06-06 23:04:00,67.0,-23.0,27.67,SE,135,0.0,0.0,0,0.00,,,0.07,Rainwise IP-100,2013-06-07 03:04:00,
2013-06-06 23:09:00,67.0,-23.0,27.67,SE,135,0.0,0.0,0,0.00,,,0.07,Rainwise IP-100,2013-06-07 03:09:00,
2013-06-06 23:14:00,67.0,-23.0,27.67,SE,135,0.0,0.0,0,0.00,,,0.07,Rainwise IP-100,2013-06-07 03:14:00,
2013-06-06 23:19:00,67.0,-23.0,27.67,SE,135,0.0,0.0,0,0.00,,,0.07,Rainwise IP-100,2013-06-07 03:19:00,
2013-06-06 23:24:00,67.0,-23.0,27.67,SSE,157,0.0,0.0,0,0.00,,,0.07,Rainwise IP-100,2013-06-07 03:24:00,
2013-06-06 23:29:00,67.0,-23.0,27.67,ENE,67,0.0,0.0,0,0.00,,,0.07,Rainwise IP-100,2013-06-07 03:29:00,
2013-06-06 23:34:00,66.0,-23.0,27.66,ENE,67,0.0,0.0,0,0.00,,,0.07,Rainwise IP-100,2013-06-07 03:34:00,
2013-06-06 23:39:00,66.0,-23.0,27.66,ESE,112,0.0,2.0,0,0.00,,,0.07,Rainwise IP-100,2013-06-07 03:39:00,
2013-06-06 23:44:00,67.0,-23.0,27.66,SE,135,2.0,3.0,0,0.00,,,0.07,Rainwise IP-100,2013-06-07 03:44:00,
2013-06-06 23:49:00,66.0,-23.0,27.66,SSW,202,0.0,3.0,0,0.00,,,0.07,Rainwise IP-100,2013-06-07 03:49:00,
2013-06-06 23:54:00,66.0,-23.0,27.67,SSW,202,0.0,0.0,0,0.00,,,0.07,Rainwise IP-100,2013-06-07 03:54:00,
2013-06-06 23:59:00,66.0,-23.0,27.67,NNW,337,0.0,0.0,0,0.00,,,0.07,Rainwise IP-100,2013-06-07 03:59:00,